South Bend, IN

6:48 AM EDT on September 25, 2016 (GMT -0400)
South Bend Regional

Weather History for KSBN - October, 2011

Change the Weather History Date:

Sunday, October 23, 2011

  Actual Average Record
Temperature  
Mean Temperature 54 °F 50 °F  
Max Temperature 67 °F 59 °F 83 °F (1963)
Min Temperature 41 °F 41 °F 25 °F (1895)
Degree Days  
Heating Degree Days 11 15  
Month to date heating degree days 226 273  
Since 1 July heating degree days 383 407  
Cooling Degree Days 0 0  
Month to date cooling degree days 11 8  
Year to date cooling degree days 969 772  
Growing Degree Days 4 (Base 50)    
Moisture  
Dew Point 39 °F    
Average Humidity 58    
Maximum Humidity 82    
Minimum Humidity 34    
Precipitation  
Precipitation T in 0.10 in 2.47 in (1951)
Month to date precipitation 3.94 2.48  
Year to date precipitation 39.77 31.28  
Snow  
Snow 0.00 in 0.00 in 2.40 in (1962)
Month to date snowfall 0.0 0.2  
Since 1 July snowfall 0.0 0.2  
Since 1 September snowfall 0.2  
Snow Depth 0.00 in    
Sea Level Pressure  
Sea Level Pressure 29.97 in    
Wind  
Wind Speed 8 mph (SSW)    
Max Wind Speed 15 mph    
Max Gust Speed 21 mph    
Visibility 10 miles    
Events      
T = Trace of Precipitation, MM = Missing Value Source: NWS Daily Summary

Daily Weather History Graph

Daily Weather History Graph

Search for Another Location

Airport or City:

Trip Planner

Search our weather history database for the weather conditions in past years. The results will help you decide how hot, cold, wet, or windy it might be!

Date:

Astronomy

Oct. 23, 2011 Rise Set
Actual Time 8:06 AM EDT 6:52 PM EDT
Civil Twilight 7:37 AM EDT 7:20 PM EDT
Nautical Twilight 7:05 AM EDT 7:52 PM EDT
Astronomical Twilight 6:33 AM EDT 8:25 PM EDT
Moon 4:09 AM EDT (10/23) 4:45 PM EDT (10/23)
Length of Visible Light 11h 42m
Length of Day
10h 45m
Waning Crescent, 14% of the Moon is Illuminated
Oct 23
Waning Crescent
Oct 26
New
Nov 2
First Quarter
Nov 10
Full
Nov 18
Last Quarter

Hourly Weather History & Observations

Time (EDT) Temp. Windchill Dew Point Humidity Pressure Visibility Wind Dir Wind Speed Gust Speed Precip Events Conditions
12:54 AM 48.0 °F - 37.0 °F 66% 30.02 in 10.0 mi South 4.6 mph - N/A   Clear
1:54 AM 48.0 °F - 36.0 °F 63% 30.00 in 10.0 mi South 4.6 mph - N/A   Clear
2:54 AM 46.0 °F 42.5 °F 36.0 °F 68% 30.00 in 10.0 mi South 6.9 mph - N/A   Clear
3:54 AM 46.9 °F - 37.0 °F 68% 30.00 in 10.0 mi SSW 9.2 mph - N/A   Clear
4:54 AM 46.9 °F - 37.0 °F 68% 29.99 in 10.0 mi SSW 9.2 mph - N/A   Clear
5:54 AM 46.0 °F 41.4 °F 37.0 °F 71% 29.99 in 10.0 mi SSW 9.2 mph - N/A   Clear
6:54 AM 45.0 °F 40.6 °F 36.0 °F 71% 30.00 in 10.0 mi SSW 8.1 mph - N/A   Clear
7:54 AM 44.1 °F 41.5 °F 36.0 °F 73% 30.00 in 10.0 mi SSW 4.6 mph - N/A   Clear
8:54 AM 43.0 °F 40.3 °F 37.0 °F 80% 30.02 in 10.0 mi South 4.6 mph - N/A   Clear
9:54 AM 48.0 °F - 39.0 °F 71% 30.02 in 10.0 mi SSW 6.9 mph - N/A   Clear
10:54 AM 51.1 °F - 39.9 °F 66% 30.02 in 10.0 mi SSW 4.6 mph - N/A   Clear
11:54 AM 57.9 °F - 42.1 °F 56% 30.00 in 10.0 mi South 4.6 mph - N/A   Clear
12:54 PM 62.1 °F - 42.1 °F 48% 29.99 in 10.0 mi Variable 4.6 mph - N/A   Clear
1:54 PM 64.0 °F - 41.0 °F 43% 29.97 in 10.0 mi WNW 8.1 mph - N/A   Clear
2:54 PM 64.9 °F - 41.0 °F 42% 29.95 in 10.0 mi West 4.6 mph - N/A   Clear
3:54 PM 66.0 °F - 37.9 °F 36% 29.93 in 10.0 mi SSW 12.7 mph 16.1 mph N/A   Clear
4:54 PM 66.0 °F - 37.9 °F 36% 29.92 in 10.0 mi SSW 12.7 mph - N/A   Clear
5:54 PM 63.0 °F - 37.9 °F 40% 29.93 in 10.0 mi SW 8.1 mph - N/A   Clear
6:54 PM 61.0 °F - 39.0 °F 44% 29.94 in 10.0 mi SSW 5.8 mph - N/A   Clear
7:54 PM 57.9 °F - 41.0 °F 53% 29.93 in 10.0 mi South 5.8 mph - N/A   Scattered Clouds
8:54 PM 57.0 °F - 39.9 °F 53% 29.93 in 10.0 mi South 6.9 mph - N/A   Partly Cloudy
9:54 PM 55.0 °F - 39.9 °F 57% 29.92 in 10.0 mi South 8.1 mph - N/A   Scattered Clouds
10:54 PM 57.0 °F - 43.0 °F 59% 29.91 in 10.0 mi SSW 8.1 mph - N/A   Mostly Cloudy
11:54 PM 57.0 °F - 44.1 °F 62% 29.89 in 10.0 mi SSW 12.7 mph - 0.00 in   Mostly Cloudy